Skip Page Navigation
NASA JPL Caltech
NASA Logo - Jet Propulsion Laboratory + View the NASA Portal
+ Center for Near-Earth Object Studies
JPL Home Earth Solar System Stars & Galaxies Technology
JPL Solar System Dynamics
BODIES ORBITS EPHEMERIDES TOOLS PHYSICAL DATA DISCOVERY FAQ SITE MAP
JPL Small-Body Database Browser
Search: [ help ]  
186297 (2002 CV89)
Classification: Main-belt Asteroid          SPK-ID: 2186297
Ephemeris | Orbit Diagram | Orbital Elements | Mission Design | Physical Parameters | Discovery Circumstances | Close-Approach Data ]

[ show orbit diagram ]
Orbital Elements at Epoch 2459396.5 (2021-Jul-01.0) TDB
Reference: JPL 12 (heliocentric ecliptic J2000)
 Element Value Uncertainty (1-sigma)   Units 
e .2346814030277828 6.2185e-08  
a 3.139954884848374 2.9829e-08 au
q 2.403065867028217 1.9808e-07 au
i 2.485969272099007 6.7019e-06 deg
node 137.8361671058429 0.00018146 deg
peri 297.2395835966286 0.00018219 deg
M 227.1991534552198 1.5783e-05 deg
tp 2460146.190282893183
(2023-Jul-20.69028289)
9.4661e-05 TDB
period 2032.279980613979
5.56
2.896e-05
7.929e-08
d
yr
n .1771409468351104 2.5242e-09 deg/d
Q 3.87684390266853 3.6829e-08 au
  Orbit Determination Parameters
   # obs. used (total)      217  
   data-arc span      7169 days (19.63 yr)  
   first obs. used      2000-10-02  
   last obs. used      2020-05-19  
   planetary ephem.      DE441  
   SB-pert. ephem.      SB441-N16  
   condition code      0  
   norm. resid. RMS      .57661  
   source      ORB  
   producer      Otto Matic  
   solution date      2021-Apr-13 21:50:42  

Additional Information
 Earth MOID = 1.4193 au 
 Jupiter MOID = 1.41992 au 
 T_jup = 3.166 
[ show covariance matrix ]

Ephemeris | Orbit Diagram | Orbital Elements | Mission Design | Physical Parameters | Discovery Circumstances | Close-Approach Data ]

Physical Parameter Table
Parameter Symbol Value Units Sigma Reference Notes
absolute magnitude H 16.31   n/a E2021B55  

186297 (2002 CV89)          Discovered 2002-Feb-07 by LINEAR at Socorro
Reference: 20080520/Numbers.arcLast Updated: 2008-05-22

[ show close-approach data ]
Alternate Designations
 2002 CV89 = 2006 WW85 
Ephemeris | Orbit Diagram | Orbital Elements | Mission Design | Physical Parameters | Discovery Circumstances | Close-Approach Data ]
ABOUT SSD CREDITS/AWARDS PRIVACY/COPYRIGHT GLOSSARY LINKS
FirstGov 2021-Jul-23 23:51 UT
(server date/time)  
NASA Home Page
Site Manager:   Ryan S. Park
Webmaster  Alan B. Chamberlin